This is the latest recevied weather packets stored in our database for station/object KI7JYE. If no packets are shown the sender has not sent any weather packets the latest 10 day(s).
| Time | Temp. | Humidity | Pressure | Rain* | Wind** | Luminosity | Snow |
|---|---|---|---|---|---|---|---|
| 1777385449 | 8.89° C | 92% | 1021.7 hPa | 0 mm | - | 29 W/m² | - |
| 1777385145 | 8.89° C | 92% | 1021.5 hPa | 0 mm | - | 25 W/m² | - |
| 1777384841 | 8.89° C | 92% | 1021.4 hPa | 0 mm | - | 19 W/m² | - |
| 1777384538 | 8.89° C | 93% | 1021.3 hPa | 0 mm | - | 14 W/m² | - |
| 1777384233 | 8.89° C | 93% | 1021.3 hPa | 0 mm | - | 12 W/m² | - |
| 1777383929 | 8.89° C | 93% | 1021.6 hPa | 0 mm | - | 10 W/m² | - |
| 1777383625 | 8.33° C | 93% | 1021.5 hPa | 0 mm | - | 10 W/m² | - |
| 1777383322 | 8.33° C | 93% | 1021.3 hPa | 0 mm | - | 7 W/m² | - |
| 1777383019 | 8.33° C | 93% | 1021.1 hPa | 0 mm | - | 8 W/m² | - |
| 1777382715 | 8.33° C | 93% | 1021.1 hPa | 0 mm | - | 6 W/m² | - |
| 1777382410 | 8.33° C | 94% | 1021.3 hPa | 0 mm | - | 3 W/m² | - |
| 1777382107 | 8.33° C | 94% | 1020.9 hPa | 0 mm | - | 2 W/m² | - |
| 1777381803 | 8.33° C | 93% | 1020.9 hPa | 0 mm | - | 0 W/m² | - |
| 1777381496 | 8.33° C | 93% | 1020.8 hPa | 0 mm | - | 0 W/m² | - |
| 1777381193 | 8.33° C | 93% | 1021 hPa | 0 mm | - | 0 W/m² | - |
| 1777380890 | 8.33° C | 93% | 1020.8 hPa | 0 mm | - | 0 W/m² | - |
| 1777380588 | 8.33° C | 93% | 1021 hPa | 0 mm | - | 0 W/m² | - |
| 1777380283 | 8.33° C | 92% | 1020.8 hPa | 0 mm | - | 0 W/m² | - |
| 1777379979 | 8.33° C | 92% | 1020.7 hPa | 0 mm | - | 0 W/m² | - |
| 1777379676 | 8.33° C | 92% | 1020.8 hPa | 0 mm | - | 0 W/m² | - |
| 1777379371 | 8.33° C | 92% | 1020.6 hPa | 0 mm | - | 0 W/m² | - |
| 1777379067 | 8.33° C | 92% | 1020.9 hPa | 0 mm | - | 0 W/m² | - |
| 1777378761 | 8.33° C | 92% | 1020.8 hPa | 0 mm | - | 0 W/m² | - |
| 1777378459 | 8.33° C | 92% | 1020.8 hPa | 0 mm | - | 0 W/m² | - |
| 1777378154 | 8.33° C | 92% | 1020.6 hPa | 0 mm | - | 0 W/m² | - |
* Rain latest hour (hover to see other rain measurements)
** Current wind speed in m/s (hover to see current wind gust speed)